Preview of NWS' New Version of Forecast
This preview is not operational and should not be used for support decisions.
Latest weather observations around

Portland, Portland International Airport (KPDX)

Using English Units (Switch to International System of Units)
Date/ Time (PDT) Wind (mph) Vis. (mi) Weather Sky Cond. Temp (°F) Rel. Humidity Wind Chill (°F) Heat Index (°F) Pressure Precip. (in)
Air Dwpt 6 hour Altimeter (inHg) Sea level (inHg) 1 hr 3 hr 6 hr
Max Min
Sep 19 15:53 WNW 9 10 Mostly Cloudy BKN044 BKN060 BKN250 69 52     54%     30.07 30.07      
Sep 19 14:53 Calm 10 Mostly Cloudy SCT030 BKN050 BKN250 67 52     59%     30.08 30.07      
Sep 19 13:53 W 5 10 Mostly Cloudy FEW025 BKN035 BKN210 66 52     61%     30.09 30.09      
Sep 19 12:53 WNW 7 10 Mostly Cloudy SCT024 BKN041 BKN250 64 52     65%     30.09 30.09      
Sep 19 12:07 NNW 3 10 Mostly Cloudy SCT024 BKN041 BKN250 63 52     67%     30.1        
Sep 19 11:53 5 10 Mostly Cloudy BKN022 BKN043 BKN250 62 52     70%     30.1 30.1      
Sep 19 10:53 3 10 Mostly Cloudy BKN019 61 53     75%     30.1 30.1      
Sep 19 09:53 Calm 10 Mostly Cloudy FEW012 BKN024 60 52     75%     30.1 30.09      
Sep 19 08:53 N 3 10 Cloudy FEW008 OVC020 58 52     81%     30.09 30.08      
Sep 19 07:53 E 5 10 Mostly Cloudy FEW007 BKN022 57 53     87%     30.07 30.07      
Sep 19 07:21 WNW 3 10 Mostly Cloudy SCT007 BKN022 56 53     90%     30.07        
Sep 19 06:53 NW 3 10 Mostly Cloudy BKN008 BKN022 56 53     90%     30.06 30.06      
Sep 19 05:53 NNW 3 10 Cloudy BKN008 OVC020 57 53     87%     30.05 30.04      
Sep 19 04:53 NW 3 10 Mostly Cloudy BKN010 BKN020 55 52     89%     30.04 30.03      
Sep 19 04:12 Calm 10 Partly Cloudy FEW008 SCT020 56 52     87%     30.03        
Sep 19 03:53 NNW 3 10 Mostly Cloudy FEW008 BKN018 57 53     87%     30.03 30.03      
Sep 19 02:53 N 3 10 Cloudy FEW008 BKN018 OVC024 57 53     87%     30.03 30.02      
Sep 19 01:53 NNW 6 10 Mostly Cloudy FEW008 BKN019 BKN024 58 54     87%     30.01 30.01      
Sep 19 01:27 NNW 3 10 Mostly Cloudy BKN018 57 54     89%     30        
Sep 19 00:53 NNW 3 10 Mostly Clear FEW010 58 54     87%     29.99 29.99      
Sep 18 23:53 Calm 10 Mostly Clear FEW010 FEW080 55 52     89%     29.99 29.98      
Sep 18 22:53 Calm 10 Mostly Clear FEW080 57 53     87%     29.98 29.98     0
Sep 18 21:53 Calm 10 Partly Cloudy FEW035 SCT080 57 54     89%     29.97 29.96      
Sep 18 20:53 WSW 3 10 Mostly Cloudy FEW035 SCT085 BKN180 59 55     87%     29.95 29.95      
Sep 18 19:53 W 5 10 Mostly Cloudy FEW035 SCT085 BKN120 61 55     81%     29.93 29.93   0  
Sep 18 18:53 WNW 3 10 Mostly Cloudy FEW034 BKN070 BKN180 64 55     73%     29.92 29.91 0    
Sep 18 17:53 NNW 6 10 Mostly Cloudy SCT032 BKN040 BKN060 BKN180 66 52     61%     29.9 29.9      
Sep 18 16:53 NW 3 10 Mostly Cloudy SCT030 BKN065 BKN120 BKN250 67 52     59%     29.88 29.88     0
Sep 18 15:53 5 10 Mostly Cloudy FEW036 BKN070 BKN120 BKN180 67 52     59%     29.88 29.87      
Sep 18 14:53 Calm 10 Mostly Cloudy FEW020 SCT045 BKN070 BKN180 66 55     68%     29.87 29.87      
Sep 18 12:53 N 3 10 Mostly Cloudy SCT010 BKN032 BKN055 BKN150 60 55     83%     29.87 29.87 0    
Sep 18 12:45 Calm 7 Light Rain SCT012 BKN032 BKN055 BKN150 61 56     83%     29.87   0    
Sep 18 11:53 SSE 5 5 Light Rain and Fog/Mist SCT009 BKN014 OVC032 58 55     90%     29.88 29.87 0    
Sep 18 10:53 SE 6 7 Light Rain SCT009 BKN014 OVC040 59 55     87%     29.86 29.86 0   0
Sep 18 10:37 E 7 8 Light Drizzle FEW009 BKN013 OVC023 60 55     83%     29.86   0    
Sep 18 09:53 ESE 6 10 Cloudy FEW009 BKN021 OVC040 59 54     83%     29.85 29.85      
Notice The following observation data may not be complete
Sep 18 08:53   10 Cloudy FEW008 BKN015 OVC050          %         0    
Sep 18 07:22 ESE 9 10 Cloudy BKN015 OVC070 57 53     87%     29.82        
Sep 18 06:53 SE 9 10 Cloudy SCT019 BKN065 OVC080 56 52     87%     29.81 29.8      
Sep 18 05:53 3 10 Cloudy BKN065 OVC080 55 51     86%     29.79 29.79      
Sep 18 04:53 E 5 10 Cloudy FEW009 OVC065 56 52     87%     29.78 29.77 0   0
Sep 18 04:34 Calm 6 Light Rain and Fog/Mist FEW009 SCT017 OVC065 56 53     90%     29.79   0    
Sep 18 04:14 WSW 9 6 Light Rain and Fog/Mist BKN009 OVC015 57 53     87%     29.79   0    
Sep 18 04:05   7 Light Rain BKN011 OVC017 59 56     90%     29.78   0    
Sep 18 03:53 E 3 10 Cloudy BKN015 OVC021 59 55     87%     29.78 29.77 0    
Sep 18 02:53 Calm 10 Light Rain BKN015 OVC021 59 55     87%     29.78 29.78 0    
Sep 18 02:18 SW 6 10 Cloudy FEW010 BKN017 OVC043 59 55     87%     29.79        
Sep 18 02:03 S 8 10 Cloudy FEW010 SCT017 OVC055 59 55     87%     29.78        
Sep 18 01:53 S 6 10 Cloudy FEW010 BKN017 OVC055 59 56     90%     29.78 29.78 0 0  
Sep 18 01:19 S 3 7 Light Rain BKN015 BKN026 OVC047 59 56     90%     29.78   0    
Sep 18 00:53 WSW 5 4 Rain and Fog/Mist SCT027 BKN048 OVC065 59 56     90%     29.78 29.78 0    
Sep 17 23:53 S 11 4 Light Rain and Fog/Mist SCT014 BKN055 OVC090 59 56     90%     29.77 29.76 0    
Sep 17 23:20 ESE 8 10 Cloudy SCT014 BKN055 OVC070 60 56     86%     29.76        
Sep 17 22:53 SSE 6 10 Cloudy SCT010 BKN015 OVC060 60 56     86%     29.77 29.76 0   1
Sep 17 21:53 SSE 8 5 Heavy Rain and Fog/Mist SCT016 BKN030 OVC060 60 56     86%     29.76 29.76 0    
Sep 17 20:53 SSE 8 9 Light Rain FEW040 BKN060 OVC085 60 57     90%     29.76 29.76 0    
Sep 17 20:15 SSW 8 10 Clear   61 56     83%     29.77        
Sep 17 19:53 SSW 9 10 Clear   61 56     83%     29.76 29.76 0 0  
Sep 17 19:18 S 6 10 Cloudy FEW014 BKN019 OVC037 61 57     87%     29.76   0    
Sep 17 18:53 SSW 6 5 Rain and Fog/Mist SCT027 BKN036 OVC060 60 57     90%     29.76 29.75 0    
Sep 17 18:45 SSW 9 3 Light Rain and Fog/Mist SCT027 BKN036 OVC055 60 57     90%     29.76   0    
Sep 17 17:53 SSW 9 6 Light Rain SCT026 BKN040 OVC080 63 55     75%     29.77 29.77 0    
Sep 17 16:53 SSW 14 10 Light Rain FEW031 BKN065 BKN090 64 55     73%     29.77 29.76 0   0
Sep 17 15:53 SSW 13 10 Light Rain FEW049 OVC060 64 54     70%     29.77 29.77 0    
Sep 17 14:53 SSW 13 10 Light Rain FEW048 SCT080 BKN100 64 54     70%     29.78 29.77 0    
Sep 17 13:53 S 18 10 Mostly Cloudy FEW030 SCT035 BKN047 66 53     63%     29.78 29.78   0  
Sep 17 13:12 S 18 10 Cloudy FEW030 OVC036 63 53     70%     29.79        
Sep 17 12:53 SE 15 10 Cloudy OVC036 62 54     75%     29.79 29.78 0    
Sep 17 11:53 ESE 10 10 Light Rain OVC037 60 54     80%     29.79 29.79 0    
Sep 17 10:53 SE 11 10 Light Rain OVC040 59 53     81%     29.81 29.81 0   0
Sep 17 09:53 ESE 14 10 Light Rain BKN043 OVC080 58 52     81%     29.82 29.81 0    
Sep 17 08:53 ESE 17 5 Light Rain BKN065 OVC080 58 52     81%     29.81 29.81 0    
Sep 17 07:53 ESE 13 10 Cloudy FEW040 OVC070 58 52     81%     29.83 29.83   0  
Sep 17 06:53 SE 10 10 Cloudy FEW015 FEW030 OVC070 59 52     78%     29.83 29.83 0    
Sep 17 05:53 SE 8 10 Cloudy FEW030 BKN065 OVC090 60 52     75%     29.85 29.85 0    
Sep 17 04:53 SE 8 10 Cloudy FEW030 BKN050 OVC110 60 52     75%     29.86 29.86      
Sep 17 03:53 SSE 10 10 Mostly Cloudy SCT070 BKN085 60 52     75%     29.88 29.87      
Sep 17 02:53 SE 7 10 Mostly Cloudy BKN080 58 52     81%     29.9 29.89      
Sep 17 01:53 SE 6 10 Partly Cloudy FEW065 SCT090 58 52     81%     29.9 29.9      
Sep 17 00:53 ESE 5 10 Mostly Cloudy BKN060 BKN080 57 52     83%     29.9 29.9      
Sep 16 23:53 ESE 6 10 Mostly Clear FEW150 56 52     87%     29.91 29.91      
Sep 16 22:53 ESE 8 10 Mostly Cloudy SCT044 BKN150 57 52     83%     29.91 29.91     0
Sep 16 21:53 ESE 10 10 Partly Cloudy SCT044 57 53     87%     29.91 29.9      
Sep 16 20:53 ESE 10 10 Mostly Clear FEW045 FEW055 57 54     89%     29.9 29.9      
Sep 16 19:53 E 8 10 Mostly Cloudy FEW040 BKN055 BKN090 59 54     83%     29.89 29.89 0 0  
Sep 16 18:53 SE 6 8 Light Rain SCT047 BKN060 BKN070 61 54     78%     29.89 29.89 0    
Sep 16 16:53 SSE 10 10 Light Rain FEW050 BKN070 BKN085 63 54     72%     29.87 29.86 0   0
May 15 08:53 S 5 8 Cloudy FEW008 OVC013 57 51     81%     29.98 29.98      
Notice The following observation data may not be complete
May 14 04:53   10 Clear CLR          %              
May 13 12:53 NW 6 10 Mostly Clear FEW030 79 50     36%   78 29.9 29.9      
May 12 18:53 NW 11 10 Clear CLR 77 49     37%   76 29.9 29.9      
Jun 12 01:53 W 6 10 Partly Cloudy SCT041 53 47     80%     30.03 30.02      
Jun 10 14:53 SSW 10 10 Mostly Cloudy SCT032 BKN044 BKN160 60 45     57%     29.87 29.86      
Jun 10 00:53 SE 3 10 Light Rain SCT047 BKN055 OVC075 52 48     86%     29.9 29.89 0    
Jun 09 23:53 SE 5 10 Mostly Cloudy BKN055 BKN100 51 48     89%     29.9 29.89      
Jun 09 14:53   10 Cloudy BKN040 BKN055 BKN070 OVC260 62 45     53%     29.86 29.86      
Jun 08 20:53 W 9 10 Light Rain SCT043 BKN060 BKN075 58 43     57%     29.97 29.97 0    
Jun 08 13:53 W 15 10 Mostly Cloudy FEW025 BKN044 BKN100 65 48     54%     29.86 29.86   0  
Notice The following observation data may not be complete
Jun 08 07:20   10 Light Rain SCT015 BKN020 OVC031          %         0    
Jun 05 20:53 NNW 8 10 Mostly Cloudy SCT210 BKN250 71 46     41%   70 29.97 29.96      
Jun 05 16:53 WNW 9 10 Mostly Cloudy FEW210 BKN260 76 29     18%   74 29.99 29.99